STARLINK-32042 (60108 NORAD) Tracking and Keplerian Element Data

This shows tracking and keplerian element data for the satellite.

Feedback or suggestion? Click here.




ElementValue
Catalog60108
NameSTARLINK-32042
Epoch Orbit1829
Epoch Day286.3475467
Epoch Year2024
RAAN261.3916
Inclination53.1578
Eccentricity0.000152
Argument of Perigee84.2349
Mean Anonmoly275.8825
Mean Motion15.30141279
Decay Rate0.00020918
L11 60108U 24117T 24286.34754670 .00020918 00000+0 71769-3 0 9990
L22 60108 53.1578 261.3916 0001520 84.2349 275.8825 15.30141279 18292



Live tracking and technical data element details for STARLINK-32042 (NORAD 60108). STARLINK-32042 can be tracked NOW for your location showing map with azimuth and elevation plus other details from your city location.







IsCatalogInMostPopularTable: catalog: 60108, numindb: 8
Update: records affected: 1



GetName: 60108 STARLINK-32042

Hit Count: updated at: Thu, 23 Jan 2025 14:04:05 GMT